DELTA 1 DEB, 10627

Orbit data source: Space-Track

DELTA 1 DEB, 10627 is space debris in LEO originally from a launch on Thu, 14 Jul 1977 UTC launched from the Air Force Eastern Test Range (AFETR). Debris objects in space refer to the collection of defunct objects orbiting the Earth. Examples of debris include non-operational satellites, rocket bodies, and fragments generated from explosions, collisions, or faulty payload assembly.

Loading next visibility...
Identifier
10627, 1977-065EW
Orbit
LEO
Country
Flag of USUS
Related business
Manufacturer
Unknown
Mission
Spacecraft
Bus & Motor
Unknown
Mass
Unknown
Launch date (UTC)
1977-07-14 (48 years ago)
Launch vehicle
Unknown
Launch site
Air Force Eastern Test Range (AFETR)
Object type
Payload
Rocket body
Debris
Shape & HBR
Unknown shape, 0.2 m
Radar Cross Section
Small (<0.1 m²)

Expand to show TLE details & history
Last TLE update: 20 hours ago

TLE from 20 hours ago
0 DELTA 1 DEB
1 10627U 77065EW  25351.55041870  .00004558  00000-0  27829-2 0  9999
2 10627  28.9685 293.7136 0574763  79.6146 286.8650 13.44525977305787
Epoch: 2025-12-17T13:12Z
TLE epoch observation values (Epoch: 2025-12-17T13:12:36.175Z)
Latitude
-0.00003°
Longitude
9.14416°
Altitude
989.481 km
Speed
7.409 km/s
True Right ascension
19h 34m 51s
True Declination
0° 00' 00"
Sunlit
Object was in daylight at epoch
Visualization orbit readout
Latitude
Unknown
Longitude
Unknown
Altitude
Unknown
Speed
Unknown
Apparent Right ascension
Unknown
Apparent Declination
Unknown
Sunlit
N/A
Visualization observer readout
Local Sidereal Time
08:08:54
Azimuth
Unknown
Elevation
Unknown
Doppler factor
Unknown
Orbital elements
Apogee altitude
1,525.917 km
Perigee altitude
666.709 km
Semi-major axis
7,474.45 km
Eccentricity
0.05748
Inclination
28.9685°
RAAN
293.7136°
Arg. of periapsis
79.6146°
True anomaly
280.44143°
Mean anomaly
286.865°
Eccentric anomaly
283.66507°
Mean motion
3.35872 °/min
Orbital period
107.18 mins
BSTAR
0.0027829
Loading maneuver chart data...
Computing Atmospheric mass density...
Loading historical data...
Loading historical data...
Loading historical data...
Loading historical data...
Loading historical data...
Loading historical data...
Loading historical data...

Documentation

Showing up to 5 results
|